Regional Weather Roundup
Issued by NWS

Home | Current Version | Previous Version | Text Only | Print | Product List | Glossary Off
Versions: 1 2 3 4 5 6 7 8 9 10 11 12 13 14 15 16 17 18 19 20 21 22 23 24 25 26 27 28 29 30 31 32 33 34 35 36 37 38 39 40 41 42 43 44 45 46 47 48 49 50

000
ASUS43 KDMX 190607
RWRIA

WEATHER ROUNDUP FOR IOWA
NATIONAL WEATHER SERVICE DES MOINES IA
100 AM CDT TUE AUG 19 2014

NOTE: "FAIR" INDICATES FEW OR NO CLOUDS BELOW 12,000 FEET WITH NO
SIGNIFICANT WEATHER AND/OR OBSTRUCTIONS TO VISIBILITY.

* - THESE STATIONS ARE NOT NWS STATIONS...THUS NOT UNDER NWS
QUALITY CONTROL.  THEY ALSO DO NOT REPORT WEATHER SUCH
AS PRECIPITATION OR FOG.

IAZ001>003-012>014-020>022-031>034-043>046-190700-
   NORTHWEST IOWA

CITY           SKY/WX    TMP DP  RH WIND       PRES   REMARKS
CARROLL *      MOCLDY    70  68  94 W7        29.77S
CHEROKEE *       N/A     68  65  89 CALM      29.77S
DENISON *      CLEAR     70  68  94 SW5       29.78R
LE MARS *      CLEAR     66  63  88 CALM      29.78F
ORANGE CITY *  CLEAR     68  63  83 NW3       29.78F
SHELDON *      CLEAR     64  64 100 NW6       29.77S
SIOUX CITY       N/A     67  64  90 W5        29.78S
6HR MIN TEMP:  67; 6HR MAX TEMP:  85;

SPENCER          N/A     65  63  93 CALM      29.76F
6HR MIN TEMP:  65; 6HR MAX TEMP:  78; 6HR PCP:  0.19;

STORM LAKE *   CLEAR     68  68 100 W7        29.78F
$$

IAZ055>058-069>071-079>083-090>094-190700-
   SOUTHWEST IOWA

CITY           SKY/WX    TMP DP  RH WIND       PRES   REMARKS
ATLANTIC *     CLEAR     70  68  94 CALM      29.79R
AUDUBON *      CLEAR     73  70  88 SW6       29.81R
CLARINDA *     CLEAR     68  68 100 CALM      29.81R
COUNCIL BLFS * CLEAR     73  72  94 SW5       29.80S
CRESTON *      CLEAR     72  70  94 SW7       29.80S
HARLAN  *      CLEAR     70  70 100 NW5       29.83R
LAMONI           N/A     72  70  93 SW9       29.79F FOG
6HR MIN TEMP:  72; 6HR MAX TEMP:  81;

RED OAK *        N/A     70  68  94 W5        29.80S
SHENANDOAH *   CLEAR     70  68  94 CALM      29.80F
$$

IAZ047>049-059>061-072>074-084-190700-
   CENTRAL IOWA

CITY           SKY/WX    TMP DP  RH WIND       PRES   REMARKS
AMES             N/A     71  68  90 W8        29.74F
6HR MIN TEMP:  70; 6HR MAX TEMP:  82;

ANKENY *       CLEAR     75  70  83 SW8       29.74F
CHARITON *     CLEAR     73  72  94 SW5       29.77F
DES MOINES       N/A     74  70  87 SW7       29.74F
6HR MIN TEMP:  74; 6HR MAX TEMP:  85;

GRINNELL*        N/A     72  70  94 SW6       29.76F
KNOXVILLE *    CLEAR     72  70  94 SW6       29.75F
MARSHALLTOWN     N/A     73  70  90 SW9       29.73F
6HR MIN TEMP:  73; 6HR MAX TEMP:  82;

PELLA *          N/A     72  71  95 SW6       29.76F
PERRY *          N/A     70  68  94 W6        29.75F
$$

IAZ004>006-015-016-023>025-035-036-190700-
   NORTH CENTRAL IOWA

CITY           SKY/WX    TMP DP  RH WIND       PRES   REMARKS
ALGONA *       CLEAR     68  64  88 W7        29.74F
CLARION *      CLEAR     70  70 100 W6        29.74R
ESTHERVILLE      N/A     65  63  93 W7        29.74F
6HR MIN TEMP:  65; 6HR MAX TEMP:  79; 6HR PCP: TRACE;

FORT DODGE *     N/A     72  66  83 CALM      29.75F
MASON CITY       N/A     66  65  96 SE5       29.74R
6HR MIN TEMP:  66; 6HR MAX TEMP:  84; 6HR PCP:  0.01;

FOREST CITY *  CLEAR     68  66  94 W3        29.73R
IOWA FALLS *   MOCLDY    72  68  88 SW6       29.75F
$$

IAZ007>011-017>019-026>030-037>042-050>054-066-190700-
   NORTHEAST IOWA

CITY           SKY/WX    TMP DP  RH WIND       PRES   REMARKS
CEDAR RAPIDS     N/A     71  70  96 SW8       29.75S
6HR MIN TEMP:  70; 6HR MAX TEMP:  79;

CHARLES CITY * PTCLDY    66  66 100 SW5       29.73F
CLINTON *        N/A     66  64  94 S7        29.78S
DECORAH *      MOCLDY    66  66 100 CALM      29.70F
DUBUQUE          N/A     70  68  93 S12       29.73F
6HR MIN TEMP:  70; 6HR MAX TEMP:  78;

MONTICELLO *   CLEAR     72  70  94 SW8       29.74R
OELWEIN *      LGT RAIN  73  72  94 VRB3      29.74R
WATERLOO       TSTM      67  63  87 W6        29.72R
6HR MIN TEMP:  65; 6HR MAX TEMP:  83; 6HR PCP:  0.35;

$$

IAZ064-065-067-068-078-190700-
   EAST CENTRAL IOWA

CITY           SKY/WX    TMP DP  RH WIND       PRES   REMARKS
DAVENPORT        N/A     72  68  87 S9        29.77F
6HR MIN TEMP:  71; 6HR MAX TEMP:  80;

IOWA CITY        N/A     72  69  90 SW5       29.77S
6HR MIN TEMP:  71; 6HR MAX TEMP:  81;

MT. PLEASANT *   N/A     71  69  93 S6        29.78F FOG
MUSCATINE *    CLEAR     72  68  88 S6        29.76F
QUAD CITIES      N/A     72  68  87 SW9       29.76F
6HR MIN TEMP:  71; 6HR MAX TEMP:  81;

$$

IAZ062-063-075>077-085>089-095>099-190700-
   SOUTHEAST IOWA

CITY           SKY/WX    TMP DP  RH WIND       PRES   REMARKS
BURLINGTON     LGT RAIN  70  69  97 SW5       29.79F FOG
6HR MIN TEMP:  69; 6HR MAX TEMP:  80; 6HR PCP: TRACE;

FAIRFIELD *    PTCLDY    70  68  94 S6        29.78F
FORT MADISON * CLEAR     72  72 100 SW5       29.80F FOG
KEOKUK *       CLEAR     72  70  94 CALM      29.79S FOG
OSKALOOSA *      N/A     69  68  96 S3        29.77F FOG
CENTERVILLE *  CLEAR     70  70 100 SW6       29.79F
OTTUMWA          N/A     71  68  90 SW6       29.76F
6HR MIN TEMP:  70; 6HR MAX TEMP:  80;

WASHINGTON *   CLEAR     72  70  94 SW9       29.77F
$$

ABBREVIATIONS USED IN REMARKS
   TC - TEMPERATURES IN CELSIUS
  WCI - WIND CHILL INDEX
   HX - HEAT INDEX
  VSB - VISIBILITY
$$




USA.gov is the U.S. government's official web portal to all federal, state and local government web resources and services.